Погода в Благодатном

Украина / Херсонская область     46°37′33″N   34°25′03″E
темп.,
°C
ветер,
м/с
пор.,
м/с
влажн.,
%
обл.,
%
осадки,
мм/ч
давл.,
гПа
погр.,
м
14 июня, пн
пн1400:00+17юз22770 0.0 100920
03:00+16ююв22900 0.0 100919
06:00+17юв23891 0.0 100980
09:00+22юв45595 0.0 1010952
12:00+25юв78455 0.0 10101607
15:00+26юв66425 0.0 10111535
18:00+24вюв55495 0.0 10111277
21:00+19вюв33736 0.0 101136
15 июня, вт
вт1500:00+18всв33705 0.0 101134
03:00+16ссв347621 0.0 101154
06:00+17ссв487945 0.0 1010168
09:00+24св6856100 0.0 1010581
12:00+27вюв6746100 0.0 10092329
15:00+25юв7853100 0.0 1008976
18:00+24вюв586099 0.4 1008970
21:00+19вюв468659 4.6 1008100
16 июня, ср
ср1600:00+17юз34940 1.5 100975
03:00+16зсз349597 1.6 100871
06:00+16зюз2494100 0.1 1009122
09:00+19з3386100 1.4 1010319
12:00+22з327196 0.2 1011780
15:00+20с4686100 4.6 1010241
18:00+21в4773100 1.8 1009405
21:00+18ссз229046 2.4 101134
17 июня, чт
чт1700:00+17с359488 0.8 1010112
03:00+17ссв3592100 0.8 1010149
06:00+18ссв3692100 0.0 1011239
09:00+21св4583100 0.0 1011698
12:00+24в5668100 0.1 10131227
15:00+22всв2365100 1.6 1013382
18:00+20всв4585100 3.6 1014239
21:00+18св4693100 4.0 1015131
18 июня, пт
пт1800:00+18всв3593100 0.1 1015116
03:00+17всв3495100 0.1 101587
06:00+18всв479792 0.1 1016288
09:00+21в678162 0.4 1016655
12:00+25в665945 2.2 10171549
15:00+25вюв7856100 2.3 10171479
18:00+22в7978100 0.6 1018901
21:00+20в51182100 1.0 1019541